Sauk Centre, MN

2:33 PM CST on December 05, 2019 (GMT -0600)
Sauk Centre

Weather History for KD39 - October, 2019

Change the Weather History Date:

Friday, October 25, 2019

  Actual Average (KGHW) Record (KGHW)
Temperature  
Mean Temperature 40 °F -  
Max Temperature 54 °F 55 °F 80 °F (1989)
Min Temperature 26 °F 34 °F 18 °F (1988)
Degree Days  
Heating Degree Days 25    
Moisture  
Dew Point 30 °F    
Average Humidity 71    
Maximum Humidity 90    
Minimum Humidity 41    
Precipitation  
Precipitation 0.00 in - - ()
Sea Level Pressure  
Sea Level Pressure 30.10 in    
Wind  
Wind Speed 7 mph ()    
Max Wind Speed 16 mph    
Max Gust Speed 21 mph    
Visibility 10.0 miles    
Events      
Averages and records for this station are not official NWS values.
T = Trace of Precipitation, MM = Missing Value Source: Averaged Metar Reports

Daily Weather History Graph

Daily Weather History Graph

Search for Another Location

Airport or City:

Astronomy

Oct. 25, 2019 Rise Set
Actual Time 7:49 AM CDT 6:17 PM CDT
Civil Twilight 7:19 AM CDT 6:47 PM CDT
Nautical Twilight 6:44 AM CDT 7:22 PM CDT
Astronomical Twilight 6:09 AM CDT 7:56 PM CDT
Moon 4:18 AM CDT (10/25) 5:31 PM CDT (10/25)
Length of Visible Light 11h 28m
Length of Day
10h 27m
Waning Crescent, 9% of the Moon is Illuminated
Oct 25
Waning Crescent
Oct 27
New
Nov 4
First Quarter
Nov 12
Full
Nov 19
Last Quarter

Hourly Weather History & Observations

Time (CDT) Temp. Windchill Dew Point Humidity Pressure Visibility Wind Dir Wind Speed Gust Speed Precip Events Conditions
12:19 AM 27.3 °F 22.0 °F 23.2 °F 84% 30.29 in 10.0 mi SSE 4.6 mph - N/A   Clear
12:36 AM 27.7 °F 22.4 °F 23.0 °F 83% 30.29 in 10.0 mi South 4.6 mph - N/A   Clear
12:56 AM 27.5 °F 23.6 °F 23.4 °F 84% 30.28 in 10.0 mi South 3.5 mph - N/A   Clear
1:15 AM 28.0 °F 22.8 °F 23.7 °F 84% 30.28 in 10.0 mi South 4.6 mph - N/A   Clear
1:16 AM 28.0 °F 22.8 °F 23.7 °F 84% 30.28 in 10.0 mi South 4.6 mph - N/A   Clear
1:35 AM 28.2 °F 22.0 °F 23.5 °F 83% 30.27 in 10.0 mi SSE 5.8 mph - N/A   Clear
1:40 AM 28.0 °F 22.8 °F 23.4 °F 83% 30.27 in 10.0 mi SSE 4.6 mph - N/A   Clear
1:57 AM 27.7 °F 22.4 °F 23.7 °F 85% 30.27 in 10.0 mi SSE 4.6 mph - N/A   Clear
2:15 AM 28.4 °F 23.3 °F 23.9 °F 83% 30.26 in 10.0 mi SSE 4.6 mph - N/A   Clear
2:35 AM 26.8 °F 20.2 °F 23.0 °F 86% 30.27 in 10.0 mi SE 5.8 mph - N/A   Clear
2:55 AM 27.3 °F 22.0 °F 23.7 °F 86% 30.25 in 10.0 mi SSE 4.6 mph - N/A   Clear
3:19 AM 27.1 °F 20.7 °F 23.4 °F 86% 30.25 in 10.0 mi SSE 5.8 mph - N/A   Clear
3:36 AM 27.1 °F 20.7 °F 23.7 °F 87% 30.24 in 10.0 mi SSE 5.8 mph - N/A   Clear
3:56 AM 27.1 °F 19.7 °F 24.4 °F 90% 30.23 in 10.0 mi SSE 6.9 mph - N/A   Scattered Clouds
4:15 AM 28.8 °F 21.7 °F 25.9 °F 89% 30.23 in 10.0 mi South 6.9 mph - N/A   Mostly Cloudy
4:16 AM 28.9 °F 21.9 °F 26.1 °F 89% 30.23 in 10.0 mi South 6.9 mph - N/A   Mostly Cloudy
4:35 AM 30.7 °F 26.0 °F 27.3 °F 87% 30.23 in 10.0 mi South 4.6 mph - N/A   Overcast
4:39 AM 30.9 °F 25.2 °F 27.5 °F 87% 30.23 in 10.0 mi South 5.8 mph - N/A   Overcast
4:56 AM 31.6 °F 25.1 °F 28.0 °F 87% 30.22 in 10.0 mi South 6.9 mph - N/A   Overcast
5:16 AM 32.0 °F 24.2 °F 28.2 °F 86% 30.22 in 10.0 mi South 9.2 mph - N/A   Overcast
5:35 AM 31.6 °F 24.4 °F 27.9 °F 86% 30.22 in 10.0 mi South 8.1 mph - N/A   Mostly Cloudy
5:36 AM 31.6 °F 24.4 °F 27.9 °F 86% 30.22 in 10.0 mi South 8.1 mph - N/A   Mostly Cloudy
5:55 AM 30.9 °F 23.5 °F 27.5 °F 87% 30.22 in 10.0 mi South 8.1 mph - N/A   Scattered Clouds
5:59 AM 31.1 °F 23.1 °F 27.5 °F 87% 30.22 in 10.0 mi South 9.2 mph - N/A   Clear
6:18 AM 30.7 °F 23.3 °F 27.5 °F 88% 30.22 in 10.0 mi South 8.1 mph - N/A   Clear
6:35 AM 30.2 °F 22.6 °F 27.3 °F 89% 30.21 in 10.0 mi South 8.1 mph - N/A   Clear
6:55 AM 30.2 °F 21.9 °F 27.3 °F 89% 30.21 in 10.0 mi South 9.2 mph - N/A   Clear
6:56 AM 30.2 °F 21.9 °F 27.3 °F 89% 30.21 in 10.0 mi South 9.2 mph - N/A   Clear
7:15 AM 30.2 °F 22.6 °F 27.3 °F 89% 30.20 in 10.0 mi South 8.1 mph - N/A   Clear
7:38 AM 30.0 °F 22.4 °F 27.3 °F 90% 30.19 in 10.0 mi South 8.1 mph - N/A   Clear
7:57 AM 30.2 °F 22.6 °F 27.5 °F 90% 30.19 in 10.0 mi South 8.1 mph - N/A   Clear
8:16 AM 30.9 °F 22.8 °F 27.5 °F 87% 30.19 in 10.0 mi South 9.2 mph - N/A   Clear
8:35 AM 31.1 °F 23.1 °F 28.0 °F 88% 30.18 in 10.0 mi South 9.2 mph - N/A   Clear
8:55 AM 32.0 °F 23.0 °F 28.2 °F 86% 30.18 in 10.0 mi South 11.5 mph - N/A   Clear
8:59 AM 32.0 °F 23.6 °F 28.2 °F 86% 30.18 in 10.0 mi South 10.4 mph - N/A   Clear
9:55 AM 36.1 °F 29.9 °F 30.4 °F 80% 30.17 in 10.0 mi South 8.1 mph - N/A   Clear
9:56 AM 36.1 °F 29.9 °F 30.4 °F 80% 30.17 in 10.0 mi South 8.1 mph - N/A   Clear
10:15 AM 37.8 °F 30.7 °F 30.7 °F 76% 30.17 in 10.0 mi SSW 10.4 mph - N/A   Clear
10:38 AM 39.2 °F 32.0 °F 30.6 °F 71% 30.16 in 10.0 mi SSW 11.5 mph - N/A   Clear
10:57 AM 39.6 °F 33.5 °F 30.9 °F 71% 30.16 in 10.0 mi South 9.2 mph - N/A   Clear
11:16 AM 41.7 °F 35.6 °F 31.8 °F 68% 30.14 in 10.0 mi South 10.4 mph - N/A   Clear
11:35 AM 43.5 °F 37.5 °F 31.5 °F 63% 30.13 in 10.0 mi South 11.5 mph - N/A   Clear
11:36 AM 43.7 °F 38.1 °F 31.6 °F 63% 30.13 in 10.0 mi South 10.4 mph - N/A   Clear
11:55 AM 45.5 °F 40.3 °F 31.8 °F 59% 30.13 in 10.0 mi South 10.4 mph - N/A   Clear
11:59 AM 46.0 °F 40.2 °F 32.0 °F 58% 30.13 in 10.0 mi South 12.7 mph - N/A   Clear
12:18 PM 47.5 °F - 31.8 °F 55% 30.12 in 10.0 mi South 10.4 mph - N/A   Clear
12:36 PM 48.4 °F - 30.9 °F 51% 30.11 in 10.0 mi South 10.4 mph - N/A   Clear
12:55 PM 49.8 °F - 31.8 °F 50% 30.10 in 10.0 mi SSW 11.5 mph - N/A   Clear
12:56 PM 50.0 °F - 31.8 °F 50% 30.10 in 10.0 mi SSW 11.5 mph - N/A   Clear
1:18 PM 50.5 °F - 31.8 °F 49% 30.09 in 10.0 mi South 9.2 mph - N/A   Clear
1:37 PM 52.0 °F - 32.4 °F 47% 30.08 in 10.0 mi South 12.7 mph 16.1 mph N/A   Clear
1:56 PM 52.2 °F - 32.0 °F 46% 30.07 in 10.0 mi South 12.7 mph - N/A   Clear
2:15 PM 52.9 °F - 32.0 °F 45% 30.05 in 10.0 mi South 13.8 mph - N/A   Clear
2:16 PM 52.9 °F - 32.0 °F 45% 30.05 in 10.0 mi South 13.8 mph - N/A   Clear
2:35 PM 53.6 °F - 32.0 °F 44% 30.04 in 10.0 mi SSW 15.0 mph - N/A   Clear
2:57 PM 53.8 °F - 32.4 °F 44% 30.03 in 10.0 mi SSW 11.5 mph - N/A   Clear
3:16 PM 54.7 °F - 32.5 °F 43% 30.03 in 10.0 mi SSW 15.0 mph - N/A   Clear
3:35 PM 54.7 °F - 32.4 °F 43% 30.02 in 10.0 mi SSW 15.0 mph - N/A   Clear
3:36 PM 54.7 °F - 32.4 °F 43% 30.02 in 10.0 mi SSW 15.0 mph - N/A   Clear
3:55 PM 54.9 °F - 31.8 °F 42% 30.01 in 10.0 mi SSW 15.0 mph 19.6 mph N/A   Clear
4:17 PM 54.9 °F - 31.5 °F 41% 30.00 in 10.0 mi SSW 16.1 mph 20.7 mph N/A   Clear
4:35 PM 54.7 °F - 32.0 °F 42% 30.00 in 10.0 mi SSW 12.7 mph - N/A   Clear
4:55 PM 54.5 °F - 31.8 °F 42% 30.00 in 10.0 mi SSW 12.7 mph - N/A   Clear
4:56 PM 54.5 °F - 31.6 °F 42% 30.00 in 10.0 mi SSW 11.5 mph - N/A   Clear
5:15 PM 53.6 °F - 32.0 °F 44% 30.00 in 10.0 mi SSW 10.4 mph - N/A   Clear
5:19 PM 53.4 °F - 32.0 °F 44% 29.99 in 10.0 mi SSW 10.4 mph - N/A   Clear
5:37 PM 52.3 °F - 32.5 °F 47% 29.99 in 10.0 mi SSW 8.1 mph - N/A   Clear
5:55 PM 50.2 °F - 32.9 °F 52% 29.98 in 10.0 mi South 6.9 mph - N/A   Clear
6:15 PM 46.2 °F 43.3 °F 32.9 °F 60% 29.98 in 10.0 mi SSE 5.8 mph - N/A   Clear
6:35 PM 45.1 °F 40.8 °F 32.4 °F 61% 29.98 in 10.0 mi South 8.1 mph - N/A   Clear
6:59 PM 42.4 °F 37.5 °F 32.4 °F 68% 29.98 in 10.0 mi SSE 8.1 mph - N/A   Clear
7:16 PM 41.2 °F 36.6 °F 32.2 °F 70% 29.98 in 10.0 mi SSE 6.9 mph - N/A   Clear
7:35 PM 39.7 °F 34.3 °F 32.0 °F 74% 29.98 in 10.0 mi South 8.1 mph - N/A   Clear
7:36 PM 39.6 °F 34.0 °F 32.0 °F 74% 29.98 in 10.0 mi South 8.1 mph - N/A   Clear
7:55 PM 39.7 °F 34.9 °F 32.0 °F 74% 29.97 in 10.0 mi SSE 6.9 mph - N/A   Clear
7:56 PM 39.6 °F 34.7 °F 32.0 °F 74% 29.97 in 10.0 mi South 6.9 mph - N/A   Clear
8:15 PM 41.0 °F 35.2 °F 32.5 °F 72% 29.97 in 10.0 mi South 9.2 mph - N/A   Clear
8:19 PM 41.7 °F 36.1 °F 32.5 °F 70% 29.97 in 10.0 mi South 9.2 mph - N/A   Clear
8:37 PM 42.3 °F 37.3 °F 32.2 °F 67% 29.97 in 10.0 mi SSW 8.1 mph - N/A   Clear
8:56 PM 40.1 °F 34.7 °F 32.0 °F 73% 29.96 in 10.0 mi South 8.1 mph - N/A   Clear
9:15 PM 41.2 °F 36.0 °F 32.0 °F 70% 29.96 in 10.0 mi South 8.1 mph - N/A   Clear
9:16 PM 41.2 °F 36.0 °F 32.0 °F 70% 29.96 in 10.0 mi South 8.1 mph - N/A   Clear
9:35 PM 40.1 °F 34.7 °F 32.0 °F 73% 29.95 in 10.0 mi South 8.1 mph - N/A   Clear
9:36 PM 39.9 °F 34.5 °F 32.0 °F 73% 29.95 in 10.0 mi South 8.1 mph - N/A   Clear
9:58 PM 40.1 °F 34.1 °F 32.0 °F 73% 29.94 in 10.0 mi South 9.2 mph - N/A   Clear
10:16 PM 40.1 °F 35.3 °F 32.0 °F 73% 29.94 in 10.0 mi South 6.9 mph - N/A   Clear
10:36 PM 39.2 °F 33.0 °F 32.0 °F 75% 29.94 in 10.0 mi South 9.2 mph - N/A   Clear
10:55 PM 37.6 °F 32.3 °F 32.0 °F 80% 29.94 in 10.0 mi SSE 6.9 mph - N/A   Clear
10:56 PM 37.4 °F 32.1 °F 32.0 °F 81% 29.94 in 10.0 mi SSE 6.9 mph - N/A   Clear
11:15 PM 39.9 °F 33.9 °F 32.2 °F 74% 29.94 in 10.0 mi South 9.2 mph - N/A   Clear
11:37 PM 40.1 °F 34.1 °F 32.0 °F 73% 29.93 in 10.0 mi South 9.2 mph - N/A   Clear
11:56 PM 40.1 °F 34.1 °F 32.0 °F 73% 29.92 in 10.0 mi South 9.2 mph - N/A   Clear